Location: Ku?niki
(51.4449°N, 17.8974°E)
Time: 11:22:03
(UTC+00:00)

COSMOS 2406 - Pass Details

Date: 18 September 2020
Orbit: 844 x 863 km, 71.0° (Epoch: 25 October)

Event Time Altitude Azimuth Distance (km) Brightness Sun altitude
Rises 20:47:14 0° 325° (NW) 3,415 7.5 -31.8°
Reaches altitude 10° 20:49:51 10° 317° (NW) 2,476 6.5 -32.0°
Enters shadow 20:54:21 35° 267° (W) 1,334 4.3 -32.4°
